Theta_e
317 327 336 342 343 343 343 338 336 337 337 336 335 332 331 332 331 333 332 332 334 336 335 334 334 334 335 336 337 334 338 338
304 312 321 332 339 342 342 342 338 336 336 335 335 332 331 331 331 333 330 328 331 336 335 334 333 333 335 336 336 334 338 339
301 303 307 315 328 336 341 343 341 338 336 334 334 338 336 333 335 332 331 328 331 334 335 334 333 335 336 336 337 338 338 337
299 300 302 304 312 326 338 341 342 338 339 339 339 340 340 340 338 333 332 329 331 334 334 334 335 338 337 337 339 339 338 337
298 298 299 300 303 310 323 335 340 338 338 339 339 338 339 340 339 337 336 332 335 335 334 337 338 339 340 340 340 339 338 337
298 297 298 299 300 302 307 317 328 335 340 338 339 338 338 340 340 339 338 337 337 338 337 337 339 338 339 339 340 338 338 337
297 297 297 297 298 300 302 308 316 327 333 339 338 338 338 338 340 340 338 336 336 336 337 337 338 338 338 338 340 338 338 337
297 297 297 297 297 298 300 304 306 314 327 333 338 338 337 338 336 339 338 337 335 335 335 336 338 338 335 336 339 339 338 337
297 297 297 297 297 298 298 300 302 304 315 327 330 338 337 337 337 337 336 336 334 333 335 336 337 338 336 333 335 339 338 338
296 296 296 296 297 297 298 299 300 302 306 318 314 332 338 337 337 336 333 336 335 333 333 335 335 336 336 333 333 334 337 338
296 296 296 296 296 296 297 298 299 299 300 304 309 317 328 337 336 336 336 336 334 332 331 332 335 335 335 333 333 333 335 336
296 296 295 295 295 296 296 297 298 299 301 302 304 308 315 325 337 336 336 335 334 333 331 331 332 334 334 331 331 332 335 336
295 295 295 295 295 295 295 296 296 298 299 301 301 303 306 315 327 337 336 335 334 333 331 331 330 333 333 329 329 330 335 335
294 295 295 294 294 295 295 296 296 297 298 299 301 302 303 307 313 327 336 335 334 333 331 330 330 330 331 330 329 328 330 333
294 294 295 295 294 294 294 296 296 296 296 298 299 301 304 306 310 312 326 335 334 333 331 330 329 329 330 332 332 332 330 329
294 294 294 294 295 294 294 294 294 295 296 296 298 299 301 304 309 313 318 320 334 333 331 331 328 328 328 331 331 329 333 333
294 294 294 294 294 294 294 293 294 294 295 296 297 297 299 303 305 310 318 318 323 325 330 330 329 327 327 329 328 329 329 330
294 294 294 294 294 294 294 293 293 293 294 294 295 296 297 299 300 304 309 319 318 324 322 329 329 327 326 327 328 329 328 330
294 294 293 293 294 294 294 293 293 293 293 293 294 294 295 296 297 299 303 311 319 318 321 322 323 327 325 326 326 327 327 328
294 293 293 293 293 294 294 293 293 292 292 292 293 293 293 294 296 298 301 305 314 320 319 320 321 321 323 325 325 325 325 326
Wind_Speed
32 23 13 5 4 12 14 18 21 25 27 27 27 29 29 29 27 25 23 23 24 27 28 28 30 30 28 27 26 26 23 21
39 33 25 17 7 9 14 16 19 23 25 26 27 28 29 29 28 24 24 24 24 28 28 29 30 30 28 26 25 25 21 21
40 38 34 27 16 7 8 15 18 22 25 26 27 24 27 28 27 27 25 25 26 28 29 30 30 28 27 26 25 19 20 20
35 35 36 35 27 18 7 12 17 19 22 22 23 21 22 23 25 26 25 26 27 29 30 31 29 23 24 25 21 19 19 19
37 35 32 32 33 27 17 8 13 24 25 25 25 24 21 21 20 23 23 26 26 29 31 29 25 22 23 23 20 20 19 19
39 37 34 32 29 28 24 16 8 11 29 30 25 29 28 24 22 23 23 23 24 26 28 28 25 22 22 22 22 20 18 18
37 37 37 35 30 28 29 21 17 13 13 32 34 27 28 29 21 23 25 24 25 27 27 28 27 23 20 22 23 21 19 19
35 36 36 37 37 32 28 23 22 18 15 21 40 35 30 28 32 26 27 25 24 27 28 28 28 25 22 22 23 21 21 19
32 33 34 36 33 34 32 29 25 26 18 18 23 32 32 34 32 28 27 30 26 23 26 26 27 26 24 23 21 21 22 21
31 31 32 34 32 33 31 28 27 26 24 17 28 9 37 37 33 32 35 28 31 30 27 27 30 28 25 23 21 19 20 21
34 31 33 33 33 32 30 30 27 30 31 24 26 22 17 41 36 33 35 34 31 30 29 30 30 30 27 23 20 19 20 21
29 30 32 33 31 32 31 27 28 27 25 29 26 26 24 19 40 39 35 32 32 33 31 30 31 30 27 21 19 17 20 23
28 30 30 30 34 33 35 34 32 29 25 24 26 28 29 24 22 43 44 39 38 37 36 28 30 28 24 16 14 15 19 23
27 27 30 29 30 29 30 31 30 27 25 27 25 27 30 29 30 22 47 43 39 39 39 31 29 32 28 23 5 9 18 27
26 26 25 28 30 28 28 26 28 25 29 29 28 28 28 28 32 29 19 41 39 41 44 42 32 32 35 19 8 8 18 16
24 25 26 26 28 28 31 26 28 29 28 29 28 26 28 27 27 29 27 26 35 40 44 44 39 30 37 37 29 17 11 8
23 25 25 26 27 28 28 30 28 27 28 31 27 28 25 24 27 26 19 25 29 26 20 42 42 38 37 37 27 22 22 16
25 27 27 27 27 28 28 29 32 31 29 29 30 26 29 27 29 28 19 24 26 34 38 31 42 41 37 37 38 30 22 23
25 27 29 29 28 28 28 29 29 30 29 29 28 29 28 30 34 30 28 19 24 31 39 36 27 28 38 43 38 39 32 28
25 28 29 29 29 28 28 30 28 29 31 30 27 28 29 30 31 29 26 25 21 30 36 40 42 28 33 34 41 39 36 31
Wind_Direction
22 21 15 353 311 278 257 236 221 214 205 202 199 191 186 183 183 186 183 181 183 176 171 169 168 165 165 162 161 158 152 153
16 14 13 8 331 313 262 248 235 224 218 209 206 199 192 187 184 189 185 186 181 179 175 174 170 167 167 166 166 163 157 158
8 11 9 7 7 347 288 250 246 235 224 216 208 201 198 192 189 189 190 187 182 181 177 176 172 171 170 171 167 166 165 165
4 3 4 3 2 358 346 273 244 239 230 219 205 204 204 194 196 193 191 189 183 181 180 178 172 172 175 175 171 175 173 172
1 359 359 360 0 356 350 297 266 247 241 233 208 206 205 202 193 192 192 192 183 181 181 179 179 180 180 182 184 177 181 178
356 358 357 355 355 356 348 338 311 283 244 233 219 213 205 202 202 191 191 191 185 184 185 188 191 189 188 190 186 181 184 181
356 355 355 353 351 351 350 341 328 300 306 236 225 213 208 205 209 196 193 191 192 188 190 191 192 192 194 186 185 184 184 183
355 354 354 352 351 348 344 340 330 307 279 296 217 216 212 202 210 206 200 199 197 196 193 193 194 194 196 190 191 191 188 187
357 355 353 352 350 346 343 339 329 322 302 285 313 217 220 214 207 207 208 200 199 202 201 195 198 198 200 196 196 198 193 191
358 357 355 354 351 345 342 337 333 327 316 306 289 300 228 217 212 206 218 209 199 201 202 201 198 200 199 201 201 203 201 196
359 357 356 353 352 350 344 337 338 332 327 315 311 299 303 212 216 212 202 199 203 201 205 208 203 199 200 201 202 206 208 201
359 358 354 353 349 349 348 342 337 336 329 326 324 312 302 340 218 215 207 201 198 206 205 209 210 202 195 200 205 210 210 205
358 0 354 353 351 348 347 342 337 333 331 325 321 319 306 308 280 206 202 204 201 205 201 210 209 203 186 188 202 214 211 208
358 357 1 356 349 342 343 338 335 329 330 329 327 323 319 303 296 270 198 198 201 200 196 204 209 195 196 180 175 218 224 213
360 359 357 359 351 346 339 339 343 343 338 335 333 326 322 317 313 287 278 196 200 200 198 196 201 202 202 188 171 206 197 214
0 359 360 359 360 351 347 341 340 338 334 333 332 334 320 314 307 303 275 293 205 202 202 198 196 203 204 210 205 194 193 191
355 356 358 358 359 356 351 341 338 334 340 338 337 338 332 317 308 330 272 286 259 223 226 199 199 200 203 204 207 202 201 200
354 353 354 356 358 356 351 350 339 339 340 343 341 339 338 327 323 312 323 265 267 244 241 235 202 205 203 211 208 200 196 196
354 353 351 350 352 351 353 351 347 340 338 338 340 342 340 336 332 323 306 290 265 243 234 244 255 225 209 206 214 216 212 207
351 350 347 347 347 347 350 351 349 345 342 337 335 339 343 340 335 330 316 296 280 238 226 223 228 245 249 231 212 215 216 210